[[{"header":{"parameterUnit":"m.s-1","parameterCategory":1,"la1":30.2991,"la2":30.254,"lo1":-89.0895,"lo2":-89.0444,"dy":0.0017,"dx":0.0017,"nx":28,"ny":28,"refTime":"2026-01-10T03:00:00:Z","depth":0,"parameterNumber":2,"parameterNumberName":"U-component_of_WINDS"},"data":[0,0,0,0,0,0,0,0,0,0,0,0,0,0,0,0,0,0,0,0,0,0,0,0,0,0,0,0,0,0,0,0,0,0,0,0,0,0,0,0,0,0,0,0,0,0,0,0,0,0,0,0,0,0,0,0,0,0,2.59,2.5899,0,2.5814,2.5813,2.5812,2.581,2.5811,2.5812,2.5813,2.5721,2.5718,2.5714,0,0,0,0,0,0,0,0,0,0,0,0,0,2.6063,2.606,2.59,2.5899,2.5898,2.5814,2.5813,2.5812,2.5809,2.5811,2.5812,2.5813,2.5722,2.5718,2.5714,0,0,0,0,0,0,0,0,0,0,0,0,0,2.5986,2.6059,2.59,2.5887,2.5885,2.5814,2.5813,2.5811,2.5809,2.5811,2.5812,2.5814,2.5724,2.5719,2.5714,2.565,0,0,2.5698,2.5696,0,0,0,0,0,0,0,0,2.599,2.598,2.589,2.5888,2.5885,2.5824,2.5837,2.5757,2.5809,2.5838,2.5813,2.5815,2.5754,2.5746,2.5727,2.5646,2.5642,2.5697,2.5694,2.5692,2.5691,0,0,0,0,0,0,0,2.5996,2.5984,2.5866,2.5889,2.5886,2.5885,2.5876,2.5822,2.5788,2.5835,2.5835,2.5825,2.5753,2.5732,2.5724,2.564,2.5698,2.5693,2.569,2.5688,2.5509,2.5507,0,0,0,0,0,0,2.6004,2.5988,2.5869,2.5863,2.5943,2.5881,2.5871,2.5842,2.5788,2.5782,2.5824,2.5825,2.574,2.5731,2.5721,2.5647,2.5692,2.5687,2.5684,2.551,2.5508,2.5507,0,0,0,0,0,0,2.6007,2.5993,2.5872,2.5926,2.591,2.5877,2.5844,2.584,2.5818,2.578,2.5774,2.5808,2.5741,2.5729,2.5669,2.5643,2.5685,2.568,2.5512,2.551,2.5508,2.5495,0,0,0,0,0,0,2.6012,2.5995,2.5969,2.5925,2.5907,2.5821,2.5843,2.5837,2.581,2.5811,2.5763,2.5757,2.5741,2.5677,2.5664,2.5637,2.5676,2.5515,2.5511,2.5508,2.5498,2.5492,2.5488,0,0,0,0,0,2.6018,2.5967,2.5968,2.5954,2.5875,2.5819,2.5809,2.5793,2.5808,2.5783,2.5759,2.5759,2.5649,2.5671,2.5656,2.5627,2.5516,2.5512,2.5509,2.55,2.5493,2.5488,0,0,0,0,0,0,2.6006,2.5961,2.5961,2.5895,2.5861,2.5819,2.5786,2.5786,2.5746,2.5748,2.5729,2.5718,2.566,2.5638,2.5663,2.5566,2.5584,2.5577,2.5582,2.5576,2.5571,2.5578,2.5672,0,0,0,0,0,2.5996,2.5955,2.5917,2.5862,2.5846,2.582,2.5794,2.5785,2.5749,2.5735,2.5706,2.5671,2.5629,2.5601,2.556,2.5495,2.5486,2.5468,2.5464,2.546,2.5454,2.5423,2.5415,2.5494,2.5494,2.5494,0,0,2.5974,2.5944,2.5919,2.586,2.5832,2.5791,2.5807,2.5761,2.5731,2.5727,2.5671,2.5649,2.5609,2.5548,2.5519,2.5527,2.5431,2.5455,2.5452,2.5449,2.5418,2.5411,2.5404,2.5492,2.5492,2.5493,0,0,2.5913,2.5886,2.5839,2.5814,2.5774,2.5758,2.5747,2.5706,2.5693,2.5636,2.5634,2.5598,2.5525,2.5498,2.5474,2.5411,2.541,2.5398,2.5373,2.5342,2.5336,2.5331,2.5311,2.5304,2.5392,2.5392,2.5392,0,2.589,2.5828,2.5815,2.5771,2.5746,2.5745,2.5699,2.5674,2.5622,2.5605,2.5616,2.5528,2.55,2.5435,2.5421,2.5401,2.539,2.5403,2.5338,2.5333,2.5327,2.5308,2.53,2.5391,2.5391,2.5392,2.5392,0,2.5804,2.5762,2.5729,2.5683,2.5655,2.561,2.5591,2.5564,2.5559,2.5542,2.5487,2.5455,2.541,2.5394,2.5386,2.5329,2.5336,2.5342,2.536,2.5319,2.5301,2.5293,2.539,2.539,2.5391,2.5391,0,0,2.5729,2.5681,2.5669,2.5651,2.561,2.5577,2.5534,2.5492,2.5471,2.5437,2.5402,2.5343,2.5351,2.5325,2.5315,2.5289,2.5245,2.5299,2.5298,2.5292,2.5184,2.518,2.5172,2.5245,2.5244,2.5243,2.5188,0,2.5666,2.559,2.558,2.5513,2.5476,2.5477,2.544,2.5411,2.5396,2.5363,2.5345,2.5306,2.5317,2.5302,2.5276,2.5256,2.5223,2.526,2.5213,2.5212,2.5224,2.5162,2.5156,2.5106,2.5181,2.518,2.5179,0,2.558,2.5548,2.5479,2.5449,2.5433,2.5399,2.5363,2.5331,2.53,2.5292,2.5266,2.5261,2.5219,2.524,2.5182,2.5207,2.5188,2.5176,2.5174,2.5169,2.5193,2.5157,2.5089,2.5083,2.5167,2.5168,2.5169,0,2.5536,2.5475,2.5427,2.5411,2.5373,2.5351,2.5334,2.5306,2.5283,2.5252,2.5237,2.52,2.518,2.5153,2.5139,2.5155,2.5084,2.5103,2.5077,2.5077,2.5061,2.5062,2.4991,2.5047,2.5047,2.5047,2.5048,0,2.5466,2.5424,2.5408,2.5378,2.5332,2.5322,2.5277,2.5261,2.5237,2.5206,2.5203,2.5174,2.5158,2.5126,2.5116,2.5072,2.5062,2.5055,2.5053,2.5055,2.5057,2.5043,2.5046,2.5045,2.5046,2.5046,2.5047,0,2.5408,2.5395,2.5343,2.5315,2.5307,2.5275,2.525,2.5223,2.521,2.517,2.5161,2.514,2.5104,2.5088,2.5042,2.5036,2.4986,2.4986,2.4997,2.4997,2.4972,2.4976,2.489,2.488,2.4942,2.4941,2.4941,0,2.5365,2.5333,2.5303,2.5284,2.5267,2.5234,2.5213,2.5203,2.5181,2.5147,2.5124,2.5089,2.506,2.5002,2.4983,2.4949,2.4949,2.4922,2.4944,2.4949,2.4951,2.4954,2.4952,2.4917,2.4917,2.4916,2.4916,0,2.529,2.5287,2.5257,2.5226,2.5202,2.5176,2.5151,2.5135,2.5122,2.5097,2.5062,2.5039,2.4996,2.4961,2.4928,2.4911,2.4912,2.491,2.4902,2.4905,2.4914,2.4911,2.4988,2.4911,2.4912,2.4912,2.4912,2.4913,2.5239,2.5214,2.519,2.5158,2.514,2.5118,2.5093,2.5079,2.5049,2.5014,2.5011,2.4974,2.4949,2.4905,2.4887,2.4859,2.4866,2.4854,2.4851,2.4849,2.4849,2.4919,2.4852,2.4852,2.4853,2.4853,2.4853,0,2.5167,2.5154,2.5125,2.5093,2.5068,2.5074,2.5049,2.5028,2.4996,2.4973,2.4947,2.4908,2.4877,2.4858,2.4826,2.4807,2.4807,2.48,2.4801,2.4798,2.4843,2.4854,2.4801,2.4801,2.4801,2.4801,2.4801,2.4801,2.5127,2.5085,2.508,2.503,2.5017,2.4982,2.4968,2.4949,2.4932,2.489,2.4864,2.4853,2.4833,2.4802,2.4774,2.4769,2.4758,2.475,2.4746,2.4789,2.4794,2.4799,2.4809,2.4748,2.4748,2.4704,2.4704,2.4703]},{"header":{"parameterUnit":"m.s-1","parameterCategory":1,"la1":30.2991,"la2":30.254,"lo1":-89.0895,"lo2":-89.0444,"dy":0.0017,"dx":0.0017,"nx":28,"ny":28,"refTime":"2026-01-10T03:00:00:Z","depth":0,"parameterNumber":3,"parameterNumberName":"V-component_of_WINDS"},"data":[0,0,0,0,0,0,0,0,0,0,0,0,0,0,0,0,0,0,0,0,0,0,0,0,0,0,0,0,0,0,0,0,0,0,0,0,0,0,0,0,0,0,0,0,0,0,0,0,0,0,0,0,0,0,0,0,0,0,2.3165,2.3166,0,2.3267,2.3268,2.3269,2.3286,2.3285,2.3284,2.3284,2.3388,2.3392,2.3395,0,0,0,0,0,0,0,0,0,0,0,0,0,2.2984,2.2987,2.3164,2.3166,2.3167,2.3267,2.3268,2.3269,2.3286,2.3285,2.3284,2.3283,2.3387,2.3391,2.3396,0,0,0,0,0,0,0,0,0,0,0,0,0,2.3072,2.2988,2.3164,2.3187,2.3191,2.3266,2.3268,2.327,2.3287,2.3285,2.3284,2.3283,2.3386,2.3391,2.3396,2.3456,0,0,2.3413,2.3415,0,0,0,0,0,0,0,0,2.3067,2.3078,2.3183,2.3186,2.319,2.3262,2.3243,2.3332,2.3287,2.325,2.3284,2.3282,2.3347,2.3356,2.3378,2.3461,2.3465,2.3413,2.3416,2.3419,2.342,0,0,0,0,0,0,0,2.306,2.3074,2.3205,2.3184,2.3188,2.3193,2.3204,2.326,2.3305,2.3253,2.3255,2.3267,2.3349,2.3373,2.338,2.3467,2.3413,2.3418,2.3421,2.3423,2.3605,2.3606,0,0,0,0,0,0,2.305,2.3069,2.3202,2.3208,2.3124,2.3197,2.3209,2.324,2.3304,2.3313,2.3268,2.3267,2.3364,2.3374,2.3384,2.3459,2.3419,2.3424,2.3427,2.3603,2.3605,2.3607,0,0,0,0,0,0,2.3046,2.3062,2.3198,2.3139,2.3156,2.3202,2.3236,2.3243,2.3267,2.3315,2.3323,2.3284,2.3363,2.3377,2.3438,2.3463,2.3426,2.3431,2.3601,2.3604,2.3606,2.361,0,0,0,0,0,0,2.3041,2.306,2.3083,2.3139,2.3159,2.325,2.3238,2.3246,2.3276,2.3276,2.3332,2.334,2.3363,2.343,2.3444,2.347,2.3435,2.3599,2.3603,2.3605,2.3607,2.3612,2.3615,0,0,0,0,0,2.3034,2.308,2.3085,2.3101,2.3189,2.3251,2.3263,2.3289,2.3278,2.3302,2.3333,2.3339,2.3458,2.3436,2.3452,2.348,2.3598,2.3602,2.3605,2.3606,2.3611,2.3615,0,0,0,0,0,0,2.3026,2.3088,2.3093,2.3158,2.3199,2.3254,2.3285,2.3293,2.3338,2.3336,2.3366,2.3379,2.3439,2.3465,2.344,2.3542,2.3527,2.3534,2.3522,2.3528,2.3532,2.3524,2.344,0,0,0,0,0,2.3031,2.3076,2.3128,2.318,2.3201,2.3239,2.3267,2.3283,2.3327,2.3344,2.338,2.3422,2.3469,2.35,2.3546,2.3611,2.3624,2.3638,2.3642,2.3645,2.3651,2.3689,2.3696,2.3619,2.3619,2.3619,0,0,2.3043,2.3083,2.3109,2.3179,2.3213,2.326,2.3254,2.3302,2.3337,2.3352,2.3413,2.344,2.3489,2.3553,2.3583,2.3577,2.3675,2.365,2.3652,2.3656,2.3693,2.3701,2.3707,2.3621,2.3621,2.362,0,0,2.3089,2.3123,2.3171,2.3205,2.3256,2.3282,2.3293,2.3347,2.3366,2.3427,2.344,2.3481,2.3561,2.3596,2.3625,2.3684,2.3692,2.3698,2.372,2.3756,2.3762,2.3768,2.3791,2.3798,2.3704,2.3704,2.3704,0,2.3097,2.3168,2.3194,2.3243,2.3274,2.329,2.3339,2.337,2.3434,2.3455,2.3447,2.355,2.3584,2.3657,2.3671,2.3693,2.3708,2.3693,2.3759,2.3765,2.3771,2.3793,2.3801,2.3704,2.3704,2.3704,2.3704,0,2.3176,2.3225,2.3257,2.3319,2.3354,2.3402,2.3436,2.3468,2.3481,2.3508,2.357,2.3612,2.3667,2.3685,2.3699,2.3761,2.3756,2.3753,2.374,2.3778,2.38,2.3808,2.3705,2.3705,2.3705,2.3705,0,0,2.3219,2.3296,2.3307,2.3336,2.3394,2.3432,2.3482,2.3536,2.3563,2.3607,2.365,2.3718,2.3716,2.3748,2.3765,2.3797,2.3844,2.3791,2.3793,2.3801,2.3916,2.3918,2.3928,2.3848,2.385,2.3851,2.3912,0,2.3273,2.3362,2.3388,2.3463,2.3509,2.3525,2.3568,2.3609,2.3635,2.3677,2.3706,2.3754,2.3748,2.3767,2.3799,2.3831,2.3867,2.3827,2.3889,2.3891,2.3878,2.3939,2.3941,2.3997,2.3921,2.3922,2.3923,0,2.3347,2.3393,2.3473,2.3526,2.3547,2.3585,2.3638,2.3678,2.3725,2.3741,2.3777,2.3792,2.3845,2.3828,2.3901,2.3873,2.39,2.392,2.3923,2.393,2.391,2.3949,2.4015,2.4024,2.3936,2.3935,2.3934,0,2.3372,2.3453,2.3512,2.3536,2.36,2.3627,2.3654,2.3699,2.3731,2.3777,2.3798,2.3848,2.3877,2.3916,2.3945,2.3929,2.4016,2.4001,2.4033,2.4032,2.4051,2.405,2.4123,2.4066,2.4066,2.4066,2.4066,0,2.343,2.3478,2.3525,2.3561,2.3616,2.3645,2.3699,2.3728,2.3768,2.381,2.3826,2.3866,2.39,2.3945,2.3967,2.4025,2.4038,2.4053,2.4059,2.4053,2.4051,2.4072,2.4069,2.4068,2.4068,2.4067,2.4067,0,2.3467,2.35,2.3565,2.362,2.3635,2.3674,2.3721,2.3757,2.3784,2.3837,2.3851,2.3893,2.3946,2.3978,2.4045,2.406,2.4125,2.4129,2.411,2.4113,2.4143,2.414,2.4234,2.4248,2.418,2.418,2.4181,0,2.3502,2.354,2.36,2.363,2.3658,2.3705,2.3738,2.3768,2.3801,2.3858,2.3887,2.3941,2.3986,2.407,2.4107,2.4158,2.4164,2.4193,2.4172,2.4165,2.4166,2.4164,2.4169,2.4197,2.4198,2.4198,2.4198,0,2.3562,2.3576,2.3623,2.3675,2.3714,2.3756,2.3799,2.3822,2.3859,2.3896,2.3951,2.3986,2.4055,2.4108,2.4163,2.4192,2.4202,2.4205,2.4215,2.421,2.4198,2.4206,2.4121,2.4203,2.4202,2.4202,2.4202,2.4202,2.36,2.3635,2.3683,2.3735,2.377,2.3809,2.3847,2.3878,2.3924,2.3983,2.3998,2.4056,2.4102,2.4177,2.4207,2.4253,2.4248,2.4263,2.4267,2.427,2.4272,2.4189,2.4263,2.4263,2.4263,2.4262,2.4262,0,2.3662,2.3693,2.3741,2.38,2.3841,2.3846,2.3894,2.3928,2.3978,2.4021,2.4065,2.4129,2.4181,2.4222,2.4276,2.4305,2.4312,2.4319,2.4318,2.4324,2.4272,2.4258,2.4313,2.4313,2.4313,2.4313,2.4313,2.4313,2.3699,2.3759,2.3779,2.3858,2.3889,2.3946,2.3973,2.401,2.4044,2.4115,2.4159,2.4185,2.4227,2.4285,2.4334,2.4344,2.4364,2.4371,2.4383,2.4333,2.4328,2.4323,2.431,2.4375,2.4375,2.4432,2.4432,2.4433]}]]